Find Starlink 11364

NORAD ID: 61543 Int'l Des: 2024-184 Owner: SPXS Country: US Constellation: starlink operational
LEOCIRCULAR

Live-Position

3D-Globus wird geladen...

Über Starlink 11364

Beschreibung wird geladen...

Nächste Überflüge

Passes for default location (London). Set your location on the main map for personalized predictions.

Höhenverlauf

Loading altitude history...

Zweizeiliger Elementsatz

1 61543U 24184M 26125.92227563 -.00002258 00000-0 -13795-4 0 9998
2 61543 53.1581 314.3246 0000782 78.1573 281.9533 15.69698664 89407
Epoch: 5. Mai 2026 • Age: 20 hours

Aktueller Status

Höhe 359.7 km
Geschwindigkeit 7.70 km/s
Subsatellitenpunkt 11.24°N, 176.75°W
Startdatum 15. Okt. 2024
Alter 1.5 years
Typ internet

Technische Details

Klassifizierung Payload
Masse 960.00 kg
Trockenmasse 910.00 kg
Gesamtmasse 960.00 kg
Länge 0.30 m
Durchmesser 4.10 m
Spannweite 29.00 m
Form Box + pan
Hersteller SPXS
Bus-Typ Starlink V2MD
Phasenstatus In Orbit
Besitzer/Staat SPXS/US

Most Searched